timestamp,wind_dir_avg,wind_spd_max_dir,wind_spd_avg,wind_spd_gust,battery_voltage,lat,long
2017-12-31 00:00:00+00:00,31.0,27.0,6.33,7.27,,47.59359,-54.27349
2017-12-31 00:10:00+00:00,26.0,25.0,5.51,6.72,,47.59359,-54.27349
2017-12-31 00:20:00+00:00,40.0,49.0,6.39,7.92,,47.59359,-54.27349
2017-12-31 00:30:00+00:00,31.0,27.0,6.03,7.18,,47.59359,-54.27349
2017-12-31 00:40:00+00:00,28.0,34.0,5.53,6.57,,47.59359,-54.27349
2017-12-31 00:50:00+00:00,41.0,41.0,4.25,5.19,,47.59359,-54.27349
2017-12-31 01:00:00+00:00,32.0,29.0,4.42,5.26,,47.59359,-54.27349
2017-12-31 01:10:00+00:00,38.0,40.0,3.98,4.75,,47.59359,-54.27349
2017-12-31 01:20:00+00:00,48.0,54.0,3.16,4.02,,47.59359,-54.27349
2017-12-31 01:30:00+00:00,43.0,41.0,4.55,5.28,,47.59359,-54.27349
2017-12-31 01:40:00+00:00,55.0,45.0,4.6,5.16,,47.59359,-54.27349
2017-12-31 01:50:00+00:00,77.0,79.0,3.46,5.07,,47.59359,-54.27349
2017-12-31 02:00:00+00:00,94.0,101.0,3.22,4.45,,47.59359,-54.27349
2017-12-31 02:10:00+00:00,90.0,84.0,3.72,4.82,,47.59359,-54.27349
2017-12-31 02:20:00+00:00,75.0,74.0,4.3,4.83,,47.59359,-54.27349
2017-12-31 02:30:00+00:00,26.0,25.0,2.57,2.92,,47.59359,-54.27349
2017-12-31 02:40:00+00:00,30.0,35.0,2.8,3.82,,47.59359,-54.27349
2017-12-31 02:50:00+00:00,15.0,16.0,4.26,4.94,,47.59359,-54.27349
2017-12-31 03:00:00+00:00,19.0,22.0,3.81,4.28,,47.59359,-54.27349
2017-12-31 03:10:00+00:00,13.0,4.0,2.93,3.68,,47.59359,-54.27349
2017-12-31 03:20:00+00:00,6.0,12.0,3.41,4.4,,47.59359,-54.27349
2017-12-31 03:30:00+00:00,36.0,37.0,4.37,5.02,,47.59359,-54.27349
2017-12-31 03:40:00+00:00,33.0,20.0,4.59,6.09,,47.59359,-54.27349
2017-12-31 03:50:00+00:00,40.0,45.0,4.83,5.51,,47.59359,-54.27349
2017-12-31 04:00:00+00:00,39.0,39.0,4.67,5.33,,47.59359,-54.27349
2017-12-31 04:10:00+00:00,51.0,53.0,3.71,4.44,,47.59359,-54.27349
2017-12-31 04:20:00+00:00,56.0,61.0,3.31,4.26,,47.59359,-54.27349
2017-12-31 04:30:00+00:00,51.0,41.0,2.46,3.03,,47.59359,-54.27349
2017-12-31 04:40:00+00:00,73.0,70.0,3.74,4.51,,47.59359,-54.27349
2017-12-31 04:50:00+00:00,104.0,112.0,2.03,2.97,,47.59359,-54.27349
2017-12-31 05:00:00+00:00,98.0,83.0,1.45,2.18,,47.59359,-54.27349
2017-12-31 05:10:00+00:00,103.0,116.0,1.44,2.18,,47.59359,-54.27349
2017-12-31 05:20:00+00:00,109.0,138.0,1.51,2.43,,47.59359,-54.27349
2017-12-31 05:30:00+00:00,123.0,94.0,1.51,3.13,,47.59359,-54.27349
2017-12-31 05:40:00+00:00,101.0,82.0,1.71,2.66,,47.59359,-54.27349
2017-12-31 05:50:00+00:00,89.0,101.0,2.75,3.94,,47.59359,-54.27349
2017-12-31 06:00:00+00:00,106.0,78.0,1.24,2.47,,47.59359,-54.27349
2017-12-31 06:10:00+00:00,103.0,113.0,1.79,2.67,,47.59359,-54.27349
2017-12-31 06:20:00+00:00,127.0,137.0,2.86,4.4,,47.59359,-54.27349
2017-12-31 06:30:00+00:00,147.0,157.0,3.43,4.11,,47.59359,-54.27349
2017-12-31 06:40:00+00:00,135.0,134.0,3.57,4.32,,47.59359,-54.27349
2017-12-31 06:50:00+00:00,148.0,147.0,3.53,4.36,,47.59359,-54.27349
2017-12-31 07:00:00+00:00,154.0,152.0,3.61,4.04,,47.59359,-54.27349
2017-12-31 07:10:00+00:00,147.0,145.0,4.15,4.93,,47.59359,-54.27349
2017-12-31 07:20:00+00:00,163.0,156.0,3.55,4.21,,47.59359,-54.27349
2017-12-31 07:30:00+00:00,172.0,172.0,4.78,5.57,,47.59359,-54.27349
2017-12-31 07:40:00+00:00,157.0,154.0,4.56,5.86,,47.59359,-54.27349
2017-12-31 07:50:00+00:00,158.0,161.0,4.3,5.63,,47.59359,-54.27349
2017-12-31 08:00:00+00:00,145.0,146.0,4.95,5.71,,47.59359,-54.27349
2017-12-31 08:10:00+00:00,133.0,137.0,3.43,5.41,,47.59359,-54.27349
2017-12-31 08:20:00+00:00,148.0,139.0,5.06,6.31,,47.59359,-54.27349
2017-12-31 08:30:00+00:00,154.0,165.0,5.43,6.4,,47.59359,-54.27349
2017-12-31 08:40:00+00:00,168.0,166.0,5.4,6.25,,47.59359,-54.27349
2017-12-31 08:50:00+00:00,185.0,178.0,5.01,5.73,,47.59359,-54.27349
2017-12-31 09:00:00+00:00,199.0,199.0,6.51,7.48,,47.59359,-54.27349
2017-12-31 09:10:00+00:00,270.0,274.0,3.04,3.87,,47.59359,-54.27349
2017-12-31 09:20:00+00:00,294.0,302.0,1.4,1.89,,47.59359,-54.27349
2017-12-31 09:30:00+00:00,270.0,260.0,1.08,1.3,,47.59359,-54.27349
2017-12-31 09:40:00+00:00,262.0,284.0,0.73,1.19,,47.59359,-54.27349
2017-12-31 09:50:00+00:00,249.0,281.0,0.37,0.62,,47.59359,-54.27349
2017-12-31 10:00:00+00:00,274.0,277.0,3.27,4.38,,47.59359,-54.27349
2017-12-31 10:10:00+00:00,264.0,272.0,3.45,3.97,,47.59359,-54.27349
2017-12-31 10:20:00+00:00,252.0,255.0,5.2,5.88,,47.59359,-54.27349
2017-12-31 10:30:00+00:00,252.0,253.0,4.67,5.42,,47.59359,-54.27349
2017-12-31 10:40:00+00:00,247.0,247.0,5.47,6.36,,47.59359,-54.27349
2017-12-31 10:50:00+00:00,263.0,264.0,5.88,6.88,,47.59359,-54.27349
2017-12-31 11:00:00+00:00,262.0,253.0,6.36,7.79,,47.59359,-54.27349
2017-12-31 11:10:00+00:00,251.0,261.0,6.28,7.31,,47.59359,-54.27349
2017-12-31 11:20:00+00:00,265.0,264.0,5.58,6.56,,47.59359,-54.27349
2017-12-31 11:30:00+00:00,262.0,261.0,5.76,6.58,,47.59359,-54.27349
2017-12-31 11:40:00+00:00,261.0,248.0,4.46,5.61,,47.59359,-54.27349
2017-12-31 11:50:00+00:00,261.0,256.0,4.27,4.73,,47.59359,-54.27349
2017-12-31 12:00:00+00:00,280.0,287.0,4.61,5.06,,47.59359,-54.27349
2017-12-31 12:10:00+00:00,284.0,287.0,4.91,5.47,,47.59359,-54.27349
2017-12-31 12:20:00+00:00,275.0,276.0,4.05,4.83,,47.59359,-54.27349
2017-12-31 12:30:00+00:00,284.0,286.0,4.07,4.72,,47.59359,-54.27349
2017-12-31 12:40:00+00:00,271.0,263.0,3.75,4.17,,47.59359,-54.27349
2017-12-31 12:50:00+00:00,284.0,289.0,3.04,3.64,,47.59359,-54.27349
2017-12-31 13:00:00+00:00,288.0,284.0,1.66,2.18,,47.59359,-54.27349
2017-12-31 13:10:00+00:00,313.0,319.0,0.96,1.27,,47.59359,-54.27349
2017-12-31 13:20:00+00:00,0.0,351.0,0.15,0.45,,47.59359,-54.27349
2017-12-31 13:30:00+00:00,203.0,193.0,0.72,1.12,,47.59359,-54.27349
2017-12-31 13:40:00+00:00,198.0,198.0,1.52,1.88,,47.59359,-54.27349
2017-12-31 13:50:00+00:00,121.0,122.0,0.9,1.23,,47.59359,-54.27349
2017-12-31 14:00:00+00:00,161.0,168.0,2.0,2.54,,47.59359,-54.27349
2017-12-31 14:10:00+00:00,190.0,188.0,1.79,2.03,,47.59359,-54.27349
2017-12-31 14:20:00+00:00,153.0,149.0,1.77,2.3,,47.59359,-54.27349
2017-12-31 14:30:00+00:00,183.0,183.0,1.64,2.01,,47.59359,-54.27349
2017-12-31 14:40:00+00:00,199.0,198.0,5.04,5.84,,47.59359,-54.27349
2017-12-31 14:50:00+00:00,225.0,219.0,4.61,6.19,,47.59359,-54.27349
2017-12-31 15:00:00+00:00,205.0,208.0,5.95,6.75,,47.59359,-54.27349
2017-12-31 15:10:00+00:00,191.0,189.0,6.1,7.11,,47.59359,-54.27349
2017-12-31 15:20:00+00:00,196.0,190.0,5.12,7.27,,47.59359,-54.27349
2017-12-31 15:30:00+00:00,195.0,198.0,4.75,5.32,,47.59359,-54.27349
2017-12-31 15:40:00+00:00,203.0,200.0,4.97,5.69,,47.59359,-54.27349
2017-12-31 15:50:00+00:00,187.0,185.0,5.79,7.26,,47.59359,-54.27349
2017-12-31 16:00:00+00:00,185.0,175.0,5.49,6.72,,47.59359,-54.27349
2017-12-31 16:10:00+00:00,176.0,184.0,5.07,5.8,,47.59359,-54.27349
2017-12-31 16:20:00+00:00,194.0,198.0,5.62,6.77,,47.59359,-54.27349
2017-12-31 16:30:00+00:00,177.0,174.0,5.77,6.71,,47.59359,-54.27349
2017-12-31 16:40:00+00:00,177.0,177.0,7.2,8.04,,47.59359,-54.27349
2017-12-31 16:50:00+00:00,195.0,198.0,6.87,7.84,,47.59359,-54.27349
2017-12-31 17:00:00+00:00,187.0,189.0,7.59,8.35,,47.59359,-54.27349
2017-12-31 17:10:00+00:00,189.0,190.0,6.58,7.47,,47.59359,-54.27349
2017-12-31 17:20:00+00:00,193.0,199.0,6.81,8.49,,47.59359,-54.27349
2017-12-31 17:30:00+00:00,185.0,190.0,5.98,7.55,,47.59359,-54.27349
2017-12-31 17:40:00+00:00,183.0,181.0,5.34,6.25,,47.59359,-54.27349
2017-12-31 17:50:00+00:00,189.0,191.0,6.2,6.73,,47.59359,-54.27349
2017-12-31 18:00:00+00:00,184.0,186.0,6.51,7.28,,47.59359,-54.27349
2017-12-31 18:10:00+00:00,189.0,190.0,5.87,6.54,,47.59359,-54.27349
2017-12-31 18:20:00+00:00,185.0,184.0,5.85,6.77,,47.59359,-54.27349
2017-12-31 18:30:00+00:00,188.0,188.0,6.25,6.72,,47.59359,-54.27349
2017-12-31 18:40:00+00:00,199.0,193.0,5.51,6.35,,47.59359,-54.27349
2017-12-31 18:50:00+00:00,207.0,207.0,4.85,5.46,,47.59359,-54.27349
2017-12-31 19:00:00+00:00,224.0,225.0,4.9,5.55,,47.59359,-54.27349
2017-12-31 19:10:00+00:00,191.0,190.0,6.66,7.62,,47.59359,-54.27349
2017-12-31 19:20:00+00:00,192.0,189.0,4.71,5.26,,47.59359,-54.27349
2017-12-31 19:30:00+00:00,195.0,196.0,5.04,5.72,,47.59359,-54.27349
2017-12-31 19:40:00+00:00,208.0,215.0,4.38,5.05,,47.59359,-54.27349
2017-12-31 19:50:00+00:00,224.0,221.0,5.89,8.67,,47.59359,-54.27349
2017-12-31 20:00:00+00:00,173.0,161.0,3.15,4.35,,47.59359,-54.27349
2017-12-31 20:10:00+00:00,174.0,183.0,4.6,6.05,,47.59359,-54.27349
2017-12-31 20:20:00+00:00,183.0,182.0,6.26,6.92,,47.59359,-54.27349
2017-12-31 20:30:00+00:00,177.0,170.0,4.04,4.35,,47.59359,-54.27349
2017-12-31 20:40:00+00:00,165.0,164.0,3.53,4.26,,47.59359,-54.27349
2017-12-31 20:50:00+00:00,206.0,213.0,2.75,3.98,,47.59359,-54.27349
2017-12-31 21:00:00+00:00,239.0,240.0,3.05,3.52,,47.59359,-54.27349
2017-12-31 21:10:00+00:00,252.0,251.0,5.18,6.49,,47.59359,-54.27349
2017-12-31 21:20:00+00:00,258.0,263.0,5.61,6.61,,47.59359,-54.27349
2017-12-31 21:30:00+00:00,241.0,246.0,4.41,5.18,,47.59359,-54.27349
2017-12-31 21:40:00+00:00,266.0,273.0,4.53,5.28,,47.59359,-54.27349
2017-12-31 21:50:00+00:00,253.0,265.0,7.54,9.07,,47.59359,-54.27349
2017-12-31 22:00:00+00:00,272.0,274.0,8.13,9.19,,47.59359,-54.27349
2017-12-31 22:10:00+00:00,278.0,278.0,6.34,7.61,,47.59359,-54.27349
2017-12-31 22:20:00+00:00,265.0,262.0,7.91,9.1,,47.59359,-54.27349
2017-12-31 22:30:00+00:00,274.0,273.0,10.05,13.68,,47.59359,-54.27349
2017-12-31 22:40:00+00:00,276.0,277.0,9.0,11.01,,47.59359,-54.27349
2017-12-31 22:50:00+00:00,270.0,268.0,10.51,12.05,,47.59359,-54.27349
2017-12-31 23:00:00+00:00,284.0,276.0,11.26,13.06,,47.59359,-54.27349
2017-12-31 23:10:00+00:00,281.0,283.0,13.15,15.59,,47.59359,-54.27349
2017-12-31 23:20:00+00:00,265.0,260.0,11.41,13.84,,47.59359,-54.27349
2017-12-31 23:30:00+00:00,272.0,272.0,11.97,13.35,,47.59359,-54.27349
2017-12-31 23:40:00+00:00,278.0,280.0,12.59,15.2,,47.59359,-54.27349
2017-12-31 23:50:00+00:00,281.0,275.0,11.56,15.35,,47.59359,-54.27349
